22-05-2023, 00:00:07,    348,    0.0,    8.4,   0.00,   0.00, 1017.9,   68.6, -999.0
22-05-2023, 00:00:17,    348,    0.0,    8.4,   0.00,   0.00, 1017.9,   68.8, -999.0
22-05-2023, 00:00:27,    348,    0.0,    8.4,   0.00,   0.00, 1017.8,   68.7, -999.0
22-05-2023, 00:00:37,    348,    0.0,    8.4,   0.00,   0.00, 1017.9,   68.8, -999.0
22-05-2023, 00:00:47,    348,    0.0,    8.3,   0.00,   0.00, 1017.9,   68.9, -999.0
22-05-2023, 00:00:56,    348,    0.0,    8.4,   0.00,   0.00, 1017.9,   69.0, -999.0
22-05-2023, 00:01:07,    348,    0.0,    8.3,   0.00,   0.00, 1017.9,   69.0, -999.0
22-05-2023, 00:01:17,    348,    0.0,    8.3,   0.00,   0.00, 1017.9,   69.1, -999.0
22-05-2023, 00:01:27,    348,    0.0,    8.3,   0.00,   0.00, 1017.8,   68.9, -999.0
22-05-2023, 00:01:36,    348,    0.0,    8.4,   0.00,   0.00, 1017.8,   68.8, -999.0
22-05-2023, 00:01:49,    348,    0.0,    8.3,   0.00,   0.00, 1017.8,   68.7, -999.0
22-05-2023, 00:01:57,    348,    0.0,    8.3,   0.00,   0.00, 1017.8,   68.7, -999.0
22-05-2023, 00:02:06,    348,    0.0,    8.2,   0.00,   0.00, 1017.8,   68.8, -999.0
22-05-2023, 00:02:16,    348,    0.0,    8.2,   0.00,   0.00, 1017.8,   68.9, -999.0
22-05-2023, 00:02:27,    348,    0.0,    8.3,   0.00,   0.00, 1017.8,   68.8, -999.0
22-05-2023, 00:02:37,    348,    0.0,    8.3,   0.00,   0.00, 1017.8,   68.9, -999.0
22-05-2023, 00:02:46,    348,    0.0,    8.3,   0.00,   0.00, 1017.8,   69.0, -999.0
22-05-2023, 00:02:56,    348,    0.0,    8.3,   0.00,   0.00, 1017.8,   69.1, -999.0
22-05-2023, 00:03:07,    348,    0.0,    8.3,   0.00,   0.00, 1017.8,   69.1, -999.0
22-05-2023, 00:03:16,    348,    0.0,    8.3,   0.00,   0.00, 1017.8,   69.2, -999.0
22-05-2023, 00:03:26,    348,    0.0,    8.3,   0.00,   0.00, 1017.8,   69.1, -999.0
22-05-2023, 00:03:36,    348,    0.0,    8.4,   0.00,   0.00, 1017.8,   69.3, -999.0
22-05-2023, 00:03:46,    348,    0.0,    8.4,   0.00,   0.00, 1017.8,   69.2, -999.0
22-05-2023, 00:03:56,    348,    0.0,    8.4,   0.00,   0.00, 1017.8,   68.9, -999.0
22-05-2023, 00:04:06,    348,    0.0,    8.3,   0.00,   0.00, 1017.8,   69.0, -999.0
22-05-2023, 00:04:17,    348,    0.0,    8.3,   0.00,   0.00, 1017.8,   69.0, -999.0
22-05-2023, 00:04:26,    348,    0.0,    8.3,   0.00,   0.00, 1017.8,   69.0, -999.0
22-05-2023, 00:04:36,    348,    0.0,    8.3,   0.00,   0.00, 1017.8,   68.8, -999.0
22-05-2023, 00:04:46,    347,    0.0,    8.4,   0.00,   0.00, 1017.8,   68.7, -999.0
22-05-2023, 00:04:56,    347,    0.0,    8.4,   0.00,   0.00, 1017.8,   68.7, -999.0
22-05-2023, 00:05:06,    347,    0.0,    8.4,   0.00,   0.00, 1017.8,   68.4, -999.0
22-05-2023, 00:05:16,    347,    0.0,    8.4,   0.00,   0.00, 1017.8,   68.3, -999.0
22-05-2023, 00:05:26,    347,    0.0,    8.4,   0.00,   0.00, 1017.8,   68.4, -999.0
22-05-2023, 00:05:36,    347,    0.0,    8.4,   0.00,   0.00, 1017.9,   68.3, -999.0
22-05-2023, 00:05:46,    347,    0.0,    8.5,   0.00,   0.00, 1017.8,   68.0, -999.0
22-05-2023, 00:05:56,    347,    0.8,    8.5,   0.00,   0.00, 1018.0,   68.4, -999.0
22-05-2023, 00:06:06,    346,    0.7,    8.5,   0.00,   0.00, 1018.0,   68.5, -999.0
22-05-2023, 00:06:16,    346,    0.1,    8.4,   0.00,   0.00, 1017.8,   68.2, -999.0
22-05-2023, 00:06:26,    347,    0.0,    8.4,   0.00,   0.00, 1017.8,   68.2, -999.0
22-05-2023, 00:06:36,    347,    0.0,    8.4,   0.00,   0.00, 1017.8,   68.5, -999.0
22-05-2023, 00:06:46,    346,    0.0,    8.5,   0.00,   0.00, 1017.8,   68.7, -999.0
22-05-2023, 00:06:56,    346,    0.0,    8.5,   0.00,   0.00, 1017.8,   68.7, -999.0
22-05-2023, 00:07:06,    346,    0.0,    8.3,   0.00,   0.00, 1017.8,   68.7, -999.0
22-05-2023, 00:07:16,    346,    0.0,    8.4,   0.00,   0.00, 1017.8,   68.6, -999.0
22-05-2023, 00:07:26,    347,    0.7,    8.5,   0.00,   0.00, 1017.9,   69.0, -999.0
22-05-2023, 00:07:36,    347,    0.1,    8.5,   0.00,   0.00, 1017.9,   69.0, -999.0
22-05-2023, 00:07:46,    347,    0.6,    8.5,   0.00,   0.00, 1018.0,   68.9, -999.0
22-05-2023, 00:07:56,    346,    0.2,    8.5,   0.00,   0.00, 1017.9,   68.6, -999.0
22-05-2023, 00:08:06,    358,    0.5,    8.5,   0.00,   0.00, 1017.9,   68.7, -999.0
22-05-2023, 00:08:16,    358,    0.1,    8.4,   0.00,   0.00, 1017.9,   68.4, -999.0
22-05-2023, 00:08:27,    358,    0.0,    8.4,   0.00,   0.00, 1017.8,   68.3, -999.0
22-05-2023, 00:08:36,    358,    0.2,    8.5,   0.00,   0.00, 1017.9,   68.5, -999.0
22-05-2023, 00:08:45,    358,    0.0,    8.4,   0.00,   0.00, 1017.8,   68.3, -999.0
22-05-2023, 00:08:56,    358,    0.0,    8.5,   0.00,   0.00, 1017.8,   68.2, -999.0
22-05-2023, 00:09:06,    358,    0.0,    8.6,   0.00,   0.00, 1017.8,   68.0, -999.0
22-05-2023, 00:09:16,    358,    0.0,    8.5,   0.00,   0.00, 1017.8,   68.1, -999.0
22-05-2023, 00:09:25,    358,    0.0,    8.5,   0.00,   0.00, 1017.8,   68.0, -999.0
22-05-2023, 00:09:36,    358,    0.0,    8.5,   0.00,   0.00, 1017.8,   67.9, -999.0
22-05-2023, 00:09:46,    358,    0.0,    8.5,   0.00,   0.00, 1017.8,   67.9, -999.0
22-05-2023, 00:09:55,    357,    0.0,    8.4,   0.00,   0.00, 1017.8,   67.8, -999.0
22-05-2023, 00:10:05,    358,    0.2,    8.5,   0.00,   0.00, 1017.8,   67.8, -999.0
22-05-2023, 00:10:16,    358,    0.2,    8.5,   0.00,   0.00, 1017.8,   67.6, -999.0
22-05-2023, 00:10:26,    358,    0.0,    8.5,   0.00,   0.00, 1017.8,   67.5, -999.0
22-05-2023, 00:10:35,    358,    0.0,    8.2,   0.00,   0.00, 1017.8,   67.8, -999.0
22-05-2023, 00:10:46,    358,    0.1,    8.5,   0.00,   0.00, 1017.8,   67.9, -999.0
22-05-2023, 00:10:56,    344,    0.0,    8.4,   0.00,   0.00, 1017.8,   67.9, -999.0
22-05-2023, 00:11:05,    345,    0.7,    8.5,   0.00,   0.00, 1017.8,   68.2, -999.0
22-05-2023, 00:11:15,    344,    0.2,    8.5,   0.00,   0.00, 1017.8,   67.9, -999.0
22-05-2023, 00:11:26,    344,    0.1,    8.5,   0.00,   0.00, 1017.9,   67.6, -999.0
22-05-2023, 00:11:35,    348,    0.0,    8.5,   0.00,   0.00, 1017.8,   67.3, -999.0
22-05-2023, 00:11:45,    348,    0.0,    8.5,   0.00,   0.00, 1017.8,   67.5, -999.0
22-05-2023, 00:11:55,    349,    0.0,    8.5,   0.00,   0.00, 1017.8,   67.6, -999.0
22-05-2023, 00:12:06,    348,    0.0,    8.5,   0.00,   0.00, 1017.7,   67.6, -999.0
22-05-2023, 00:12:15,    348,    0.0,    8.6,   0.00,   0.00, 1017.7,   67.8, -999.0
22-05-2023, 00:12:25,    348,    0.0,    8.5,   0.00,   0.00, 1017.7,   67.7, -999.0
22-05-2023, 00:12:35,    348,    0.0,    8.4,   0.00,   0.00, 1017.7,   67.6, -999.0
22-05-2023, 00:12:45,    345,    0.0,    8.6,   0.00,   0.00, 1017.8,   67.8, -999.0
22-05-2023, 00:12:55,    345,    0.0,    8.6,   0.00,   0.00, 1017.7,   67.7, -999.0
22-05-2023, 00:13:05,    345,    0.0,    8.5,   0.00,   0.00, 1017.7,   67.7, -999.0
22-05-2023, 00:13:15,    345,    0.0,    8.5,   0.00,   0.00, 1017.7,   67.6, -999.0
22-05-2023, 00:13:25,    344,    0.0,    8.5,   0.00,   0.00, 1017.7,   67.4, -999.0
22-05-2023, 00:13:35,    344,    0.0,    8.6,   0.00,   0.00, 1017.7,   67.4, -999.0
22-05-2023, 00:13:45,    344,    0.0,    8.6,   0.00,   0.00, 1017.7,   67.3, -999.0
22-05-2023, 00:13:55,    345,    0.0,    8.6,   0.00,   0.00, 1017.7,   67.3, -999.0
22-05-2023, 00:14:05,    345,    0.0,    8.6,   0.00,   0.00, 1017.7,   67.5, -999.0
22-05-2023, 00:14:15,    345,    0.0,    8.6,   0.00,   0.00, 1017.7,   67.5, -999.0
22-05-2023, 00:14:25,    344,    0.0,    8.6,   0.00,   0.00, 1017.7,   67.3, -999.0
22-05-2023, 00:14:35,    331,    0.4,    8.4,   0.00,   0.00, 1017.7,   67.2, -999.0
22-05-2023, 00:14:45,    331,    0.2,    8.6,   0.00,   0.00, 1017.8,   67.2, -999.0
22-05-2023, 00:14:55,    331,    0.0,    8.4,   0.00,   0.00, 1017.7,   67.0, -999.0
22-05-2023, 00:15:05,    331,    0.0,    8.5,   0.00,   0.00, 1017.7,   67.1, -999.0
22-05-2023, 00:15:15,    331,    0.0,    8.5,   0.00,   0.00, 1017.7,   67.1, -999.0
22-05-2023, 00:15:25,     11,    0.9,    8.5,   0.00,   0.00, 1017.8,   67.5, -999.0
22-05-2023, 00:15:35,      6,    0.5,    8.7,   0.00,   0.00, 1017.8,   67.3, -999.0
22-05-2023, 00:15:45,      6,    0.0,    8.5,   0.00,   0.00, 1017.7,   67.2, -999.0
22-05-2023, 00:15:55,      6,    0.0,    8.5,   0.00,   0.00, 1017.7,   67.1, -999.0
22-05-2023, 00:16:05,      6,    0.0,    8.5,   0.00,   0.00, 1017.6,   67.3, -999.0
22-05-2023, 00:16:15,      0,    0.3,    8.6,   0.00,   0.00, 1017.7,   67.5, -999.0
22-05-2023, 00:16:25,    355,    0.7,    8.6,   0.00,   0.00, 1017.7,   67.4, -999.0
22-05-2023, 00:16:35,    355,    0.0,    8.5,   0.00,   0.00, 1017.7,   67.3, -999.0
22-05-2023, 00:16:45,    356,    0.1,    8.5,   0.00,   0.00, 1017.7,   67.5, -999.0
22-05-2023, 00:16:55,    355,    0.0,    8.5,   0.00,   0.00, 1017.7,   67.5, -999.0
22-05-2023, 00:17:05,    355,    0.0,    8.5,   0.00,   0.00, 1017.7,   67.4, -999.0
22-05-2023, 00:17:16,    355,    0.1,    8.4,   0.00,   0.00, 1017.7,   67.4, -999.0
22-05-2023, 00:17:25,    354,    0.1,    8.6,   0.00,   0.00, 1017.8,   67.4, -999.0
22-05-2023, 00:17:35,    334,    1.0,    8.5,   0.00,   0.00, 1017.8,   67.6, -999.0
22-05-2023, 00:17:44,    334,    0.7,    8.6,   0.00,   0.00, 1017.8,   67.6, -999.0
22-05-2023, 00:17:55,    334,    0.0,    8.5,   0.00,   0.00, 1017.7,   67.2, -999.0
22-05-2023, 00:18:05,    333,    0.0,    8.4,   0.00,   0.00, 1017.7,   67.2, -999.0
22-05-2023, 00:18:14,    334,    0.0,    8.5,   0.00,   0.00, 1017.7,   67.3, -999.0
22-05-2023, 00:18:25,    334,    0.0,    8.5,   0.00,   0.00, 1017.7,   67.3, -999.0
22-05-2023, 00:18:35,    334,    0.0,    8.4,   0.00,   0.00, 1017.7,   67.4, -999.0
22-05-2023, 00:18:45,    334,    0.0,    8.6,   0.00,   0.00, 1017.7,   67.4, -999.0
22-05-2023, 00:18:54,    334,    0.1,    8.5,   0.00,   0.00, 1017.8,   67.5, -999.0
22-05-2023, 00:19:05,    333,    0.0,    8.5,   0.00,   0.00, 1017.7,   67.2, -999.0
22-05-2023, 00:19:15,    350,    0.2,    8.5,   0.00,   0.00, 1017.8,   67.5, -999.0
22-05-2023, 00:19:24,    356,    1.1,    8.6,   0.00,   0.00, 1017.8,   67.4, -999.0
22-05-2023, 00:19:34,    356,    0.0,    8.6,   0.00,   0.00, 1017.7,   67.0, -999.0
22-05-2023, 00:19:45,    356,    0.0,    8.5,   0.00,   0.00, 1017.7,   66.8, -999.0
22-05-2023, 00:19:54,    356,    0.1,    8.5,   0.00,   0.00, 1017.8,   67.0, -999.0
22-05-2023, 00:20:04,    356,    0.1,    8.5,   0.00,   0.00, 1017.7,   66.8, -999.0
22-05-2023, 00:20:14,    356,    0.0,    8.5,   0.00,   0.00, 1017.7,   66.7, -999.0
22-05-2023, 00:20:25,    356,    0.0,    8.4,   0.00,   0.00, 1017.7,   66.8, -999.0
22-05-2023, 00:20:34,    356,    0.0,    8.4,   0.00,   0.00, 1017.7,   66.8, -999.0
22-05-2023, 00:20:44,    356,    0.0,    8.4,   0.00,   0.00, 1017.7,   66.7, -999.0
22-05-2023, 00:20:54,    356,    0.5,    8.5,   0.00,   0.00, 1017.8,   67.2, -999.0
22-05-2023, 00:21:04,    356,    0.0,    8.4,   0.00,   0.00, 1017.7,   67.2, -999.0
22-05-2023, 00:21:14,    356,    0.0,    8.5,   0.00,   0.00, 1017.7,   67.1, -999.0
22-05-2023, 00:21:24,    356,    0.0,    8.4,   0.00,   0.00, 1017.7,   67.3, -999.0
22-05-2023, 00:21:34,    356,    0.0,    8.5,   0.00,   0.00, 1017.7,   67.4, -999.0
22-05-2023, 00:21:44,    356,    0.0,    8.5,   0.00,   0.00, 1017.7,   67.2, -999.0
22-05-2023, 00:21:54,    356,    0.0,    8.4,   0.00,   0.00, 1017.7,   67.3, -999.0
22-05-2023, 00:22:04,    356,    0.0,    8.5,   0.00,   0.00, 1017.7,   67.4, -999.0
22-05-2023, 00:22:14,    356,    0.0,    8.4,   0.00,   0.00, 1017.8,   67.6, -999.0
22-05-2023, 00:22:24,    355,    0.6,    8.5,   0.00,   0.00, 1017.8,   67.9, -999.0
22-05-2023, 00:22:34,    356,    0.2,    8.5,   0.00,   0.00, 1017.8,   67.7, -999.0
22-05-2023, 00:22:44,    356,    0.0,    8.5,   0.00,   0.00, 1017.7,   67.5, -999.0
22-05-2023, 00:22:54,    356,    0.0,    8.4,   0.00,   0.00, 1017.7,   67.3, -999.0
22-05-2023, 00:23:04,    356,    0.3,    8.5,   0.00,   0.00, 1017.8,   67.6, -999.0
22-05-2023, 00:23:14,    356,    0.0,    8.4,   0.00,   0.00, 1017.7,   67.4, -999.0
22-05-2023, 00:23:24,      0,    0.8,    8.5,   0.00,   0.00, 1017.8,   67.9, -999.0
22-05-2023, 00:23:34,     17,    1.4,    8.5,   0.00,   0.00, 1017.8,   68.0, -999.0
22-05-2023, 00:23:44,    324,    1.3,    8.5,   0.00,   0.00, 1017.8,   67.7, -999.0
22-05-2023, 00:23:54,    324,    0.2,    8.5,   0.00,   0.00, 1017.8,   67.4, -999.0
22-05-2023, 00:24:04,    324,    0.6,    8.5,   0.00,   0.00, 1017.8,   67.4, -999.0
22-05-2023, 00:24:14,    324,    0.1,    8.5,   0.00,   0.00, 1017.7,   67.2, -999.0
22-05-2023, 00:24:24,    326,    0.4,    8.5,   0.00,   0.00, 1017.8,   67.4, -999.0
22-05-2023, 00:24:34,    327,    1.1,    8.5,   0.00,   0.00, 1017.8,   67.2, -999.0
22-05-2023, 00:24:44,    328,    1.0,    8.5,   0.00,   0.00, 1017.8,   67.2, -999.0
22-05-2023, 00:24:54,    327,    0.9,    8.5,   0.00,   0.00, 1017.8,   67.2, -999.0
22-05-2023, 00:25:04,    328,    1.0,    8.4,   0.00,   0.00, 1017.8,   67.5, -999.0
22-05-2023, 00:25:14,    327,    0.8,    8.5,   0.00,   0.00, 1017.8,   67.4, -999.0
22-05-2023, 00:25:24,    327,    0.3,    8.4,   0.00,   0.00, 1017.7,   67.2, -999.0
22-05-2023, 00:25:34,    327,    0.0,    8.4,   0.00,   0.00, 1017.6,   67.1, -999.0
22-05-2023, 00:25:44,    327,    0.1,    8.4,   0.00,   0.00, 1017.7,   67.5, -999.0
22-05-2023, 00:25:54,    330,    0.8,    8.5,   0.00,   0.00, 1017.8,   67.8, -999.0
22-05-2023, 00:26:03,    350,    2.2,    8.5,   0.00,   0.00, 1017.8,   67.5, -999.0
22-05-2023, 00:26:14,    349,    1.7,    8.5,   0.00,   0.00, 1017.8,   67.1, -999.0
22-05-2023, 00:26:24,      0,    1.4,    8.4,   0.00,   0.00, 1017.8,   67.0, -999.0
22-05-2023, 00:26:34,    338,    0.9,    8.5,   0.00,   0.00, 1017.8,   66.9, -999.0
22-05-2023, 00:26:43,    344,    1.8,    8.4,   0.00,   0.00, 1017.8,   66.8, -999.0
22-05-2023, 00:26:54,    344,    1.1,    8.5,   0.00,   0.00, 1017.8,   66.8, -999.0
22-05-2023, 00:27:04,    346,    1.0,    8.5,   0.00,   0.00, 1017.8,   67.0, -999.0
22-05-2023, 00:27:13,    345,    0.5,    8.5,   0.00,   0.00, 1017.7,   66.8, -999.0
22-05-2023, 00:27:24,    345,    0.0,    8.5,   0.00,   0.00, 1017.7,   66.8, -999.0
22-05-2023, 00:27:34,    344,    0.1,    8.4,   0.00,   0.00, 1017.7,   66.8, -999.0
22-05-2023, 00:27:43,    345,    0.5,    8.5,   0.00,   0.00, 1017.8,   67.0, -999.0
22-05-2023, 00:27:53,    344,    0.0,    8.5,   0.00,   0.00, 1017.7,   66.8, -999.0
22-05-2023, 00:28:04,    344,    0.1,    8.4,   0.00,   0.00, 1017.7,   66.9, -999.0
22-05-2023, 00:28:16,    344,    0.1,    8.6,   0.00,   0.00, 1017.7,   67.1, -999.0
22-05-2023, 00:28:23,    344,    0.0,    8.4,   0.00,   0.00, 1017.7,   67.0, -999.0
22-05-2023, 00:28:33,    345,    0.0,    8.4,   0.00,   0.00, 1017.6,   66.8, -999.0
22-05-2023, 00:28:44,    344,    0.0,    8.4,   0.00,   0.00, 1017.6,   66.7, -999.0
22-05-2023, 00:28:53,    344,    0.9,    8.6,   0.00,   0.00, 1017.8,   67.1, -999.0
22-05-2023, 00:29:03,    349,    1.3,    8.5,   0.00,   0.00, 1017.8,   66.8, -999.0
22-05-2023, 00:29:13,    347,    1.1,    8.5,   0.00,   0.00, 1017.8,   66.7, -999.0
22-05-2023, 00:29:23,    346,    0.8,    8.6,   0.00,   0.00, 1017.8,   66.8, -999.0
22-05-2023, 00:29:33,    346,    0.0,    8.4,   0.00,   0.00, 1017.6,   66.4, -999.0
22-05-2023, 00:29:43,    346,    0.0,    8.5,   0.00,   0.00, 1017.6,   66.6, -999.0
22-05-2023, 00:29:53,    346,    0.6,    8.4,   0.00,   0.00, 1017.7,   67.0, -999.0
22-05-2023, 00:30:03,    346,    0.2,    8.5,   0.00,   0.00, 1017.7,   66.9, -999.0
22-05-2023, 00:30:13,    346,    1.0,    8.5,   0.00,   0.00, 1017.8,   67.2, -999.0
22-05-2023, 00:30:23,    346,    0.4,    8.5,   0.00,   0.00, 1017.7,   67.0, -999.0
22-05-2023, 00:30:33,    346,    0.8,    8.5,   0.00,   0.00, 1017.8,   66.8, -999.0
22-05-2023, 00:30:43,    346,    1.0,    8.6,   0.00,   0.00, 1017.8,   67.0, -999.0
22-05-2023, 00:30:53,    346,    0.2,    8.6,   0.00,   0.00, 1017.7,   66.6, -999.0
22-05-2023, 00:31:03,    346,    0.0,    8.4,   0.00,   0.00, 1017.6,   66.4, -999.0
22-05-2023, 00:31:13,    346,    0.2,    8.6,   0.00,   0.00, 1017.7,   66.5, -999.0
22-05-2023, 00:31:23,    346,    0.6,    8.5,   0.00,   0.00, 1017.7,   66.6, -999.0
22-05-2023, 00:31:33,    338,    1.9,    8.5,   0.00,   0.00, 1017.8,   66.4, -999.0
22-05-2023, 00:31:43,    338,    0.5,    8.6,   0.00,   0.00, 1017.8,   66.1, -999.0
22-05-2023, 00:31:53,    339,    0.3,    8.5,   0.00,   0.00, 1017.7,   66.1, -999.0
22-05-2023, 00:32:03,    339,    0.4,    8.5,   0.00,   0.00, 1017.8,   66.2, -999.0
22-05-2023, 00:32:13,    339,    0.2,    8.5,   0.00,   0.00, 1017.7,   66.4, -999.0
22-05-2023, 00:32:23,    339,    0.6,    8.5,   0.00,   0.00, 1017.7,   66.7, -999.0
22-05-2023, 00:32:33,    339,    0.2,    8.5,   0.00,   0.00, 1017.7,   66.6, -999.0
22-05-2023, 00:32:43,    341,    2.0,    8.6,   0.00,   0.00, 1017.7,   66.5, -999.0
22-05-2023, 00:32:53,    346,    1.1,    8.6,   0.00,   0.00, 1017.7,   66.4, -999.0
22-05-2023, 00:33:03,    355,    1.1,    8.5,   0.00,   0.00, 1017.7,   66.5, -999.0
22-05-2023, 00:33:13,    358,    1.1,    8.6,   0.00,   0.00, 1017.7,   66.4, -999.0
22-05-2023, 00:33:23,    358,    0.4,    8.5,   0.00,   0.00, 1017.7,   66.3, -999.0
22-05-2023, 00:33:33,    357,    0.1,    8.5,   0.00,   0.00, 1017.7,   66.2, -999.0
22-05-2023, 00:33:43,    358,    0.0,    8.4,   0.00,   0.00, 1017.6,   66.1, -999.0
22-05-2023, 00:33:53,    358,    0.0,    8.5,   0.00,   0.00, 1017.6,   66.0, -999.0
22-05-2023, 00:34:03,    358,    0.0,    8.5,   0.00,   0.00, 1017.6,   66.1, -999.0
22-05-2023, 00:34:13,    358,    0.0,    8.5,   0.00,   0.00, 1017.6,   66.1, -999.0
22-05-2023, 00:34:22,    358,    0.0,    8.5,   0.00,   0.00, 1017.6,   66.3, -999.0
22-05-2023, 00:34:33,    358,    0.0,    8.5,   0.00,   0.00, 1017.6,   66.3, -999.0
22-05-2023, 00:34:43,    358,    0.0,    8.4,   0.00,   0.00, 1017.6,   66.4, -999.0
22-05-2023, 00:34:52,    358,    0.0,    8.4,   0.00,   0.00, 1017.6,   66.6, -999.0
22-05-2023, 00:35:03,    357,    0.4,    8.5,   0.00,   0.00, 1017.7,   66.8, -999.0
22-05-2023, 00:35:13,    358,    0.3,    8.5,   0.00,   0.00, 1017.7,   66.6, -999.0
22-05-2023, 00:35:23,    357,    0.1,    8.5,   0.00,   0.00, 1017.7,   66.5, -999.0
22-05-2023, 00:35:32,    357,    0.0,    8.3,   0.00,   0.00, 1017.6,   66.4, -999.0
22-05-2023, 00:35:43,    357,    0.1,    8.5,   0.00,   0.00, 1017.7,   66.6, -999.0
22-05-2023, 00:35:53,    357,    0.1,    8.3,   0.00,   0.00, 1017.7,   66.5, -999.0
22-05-2023, 00:36:02,    356,    0.0,    8.4,   0.00,   0.00, 1017.7,   66.7, -999.0
22-05-2023, 00:36:12,    356,    0.0,    8.4,   0.00,   0.00, 1017.6,   66.5, -999.0
22-05-2023, 00:36:23,    356,    0.0,    8.3,   0.00,   0.00, 1017.6,   66.6, -999.0
22-05-2023, 00:36:33,    356,    0.0,    8.4,   0.00,   0.00, 1017.6,   66.7, -999.0
22-05-2023, 00:36:42,    356,    0.0,    8.2,   0.00,   0.00, 1017.6,   66.9, -999.0
22-05-2023, 00:36:52,    356,    0.7,    8.4,   0.00,   0.00, 1017.7,   67.0, -999.0
22-05-2023, 00:37:03,    356,    0.6,    8.3,   0.00,   0.00, 1017.7,   67.1, -999.0
22-05-2023, 00:37:12,    340,    0.8,    8.4,   0.00,   0.00, 1017.7,   67.2, -999.0
22-05-2023, 00:37:22,    340,    0.0,    8.3,   0.00,   0.00, 1017.6,   66.9, -999.0
22-05-2023, 00:37:32,    340,    0.0,    8.3,   0.00,   0.00, 1017.6,   67.1, -999.0
22-05-2023, 00:37:42,    339,    0.0,    8.4,   0.00,   0.00, 1017.6,   67.0, -999.0
22-05-2023, 00:37:52,    339,    0.0,    8.2,   0.00,   0.00, 1017.6,   66.9, -999.0
22-05-2023, 00:38:02,    340,    0.0,    8.2,   0.00,   0.00, 1017.6,   67.0, -999.0
22-05-2023, 00:38:12,    343,    0.0,    8.3,   0.00,   0.00, 1017.6,   67.0, -999.0
22-05-2023, 00:38:22,    342,    0.0,    8.3,   0.00,   0.00, 1017.6,   67.0, -999.0
22-05-2023, 00:38:32,    342,    0.0,    8.2,   0.00,   0.00, 1017.6,   66.8, -999.0
22-05-2023, 00:38:42,    353,    0.0,    8.2,   0.00,   0.00, 1017.6,   66.7, -999.0
22-05-2023, 00:38:52,    352,    0.0,    8.1,   0.00,   0.00, 1017.6,   66.8, -999.0
22-05-2023, 00:39:02,    352,    0.0,    8.2,   0.00,   0.00, 1017.6,   66.9, -999.0
22-05-2023, 00:39:12,    353,    0.7,    8.3,   0.00,   0.00, 1017.7,   67.1, -999.0
22-05-2023, 00:39:22,    352,    1.4,    8.4,   0.00,   0.00, 1017.7,   67.1, -999.0
22-05-2023, 00:39:32,    351,    1.2,    8.3,   0.00,   0.00, 1017.7,   67.0, -999.0
22-05-2023, 00:39:42,    352,    0.1,    8.3,   0.00,   0.00, 1017.6,   66.7, -999.0
22-05-2023, 00:39:52,    352,    0.0,    8.3,   0.00,   0.00, 1017.6,   66.8, -999.0
22-05-2023, 00:40:02,    352,    0.1,    8.4,   0.00,   0.00, 1017.6,   67.1, -999.0
22-05-2023, 00:40:12,    352,    0.0,    8.3,   0.00,   0.00, 1017.6,   67.1, -999.0
22-05-2023, 00:40:22,    352,    0.0,    8.3,   0.00,   0.00, 1017.6,   67.1, -999.0
22-05-2023, 00:40:32,    342,    1.0,    8.3,   0.00,   0.00, 1017.6,   67.3, -999.0
22-05-2023, 00:40:42,    342,    0.5,    8.3,   0.00,   0.00, 1017.7,   67.2, -999.0
22-05-2023, 00:40:52,    342,    0.0,    8.3,   0.00,   0.00, 1017.6,   66.8, -999.0
22-05-2023, 00:41:02,    342,    0.0,    8.3,   0.00,   0.00, 1017.6,   66.7, -999.0
22-05-2023, 00:41:12,    342,    0.0,    8.3,   0.00,   0.00, 1017.6,   66.8, -999.0
22-05-2023, 00:41:22,    342,    0.0,    8.3,   0.00,   0.00, 1017.6,   66.9, -999.0
22-05-2023, 00:41:32,    342,    0.0,    8.3,   0.00,   0.00, 1017.6,   66.9, -999.0
22-05-2023, 00:41:42,    342,    0.0,    8.2,   0.00,   0.00, 1017.5,   66.9, -999.0
22-05-2023, 00:41:52,    342,    0.0,    8.2,   0.00,   0.00, 1017.5,   67.0, -999.0
22-05-2023, 00:42:02,    342,    0.0,    8.2,   0.00,   0.00, 1017.5,   66.9, -999.0
22-05-2023, 00:42:12,    342,    0.0,    8.3,   0.00,   0.00, 1017.6,   67.0, -999.0
22-05-2023, 00:42:22,    342,    0.0,    8.2,   0.00,   0.00, 1017.6,   67.0, -999.0
22-05-2023, 00:42:32,    342,    0.0,    8.2,   0.00,   0.00, 1017.5,   67.1, -999.0
22-05-2023, 00:42:41,    342,    0.0,    8.3,   0.00,   0.00, 1017.6,   67.1, -999.0
22-05-2023, 00:42:52,    346,    0.0,    8.1,   0.00,   0.00, 1017.6,   67.2, -999.0
22-05-2023, 00:43:02,    352,    1.1,    8.3,   0.00,   0.00, 1017.6,   67.5, -999.0
22-05-2023, 00:43:12,      1,    0.7,    8.3,   0.00,   0.00, 1017.6,   67.6, -999.0
22-05-2023, 00:43:22,    358,    0.6,    8.3,   0.00,   0.00, 1017.6,   67.6, -999.0
22-05-2023, 00:43:32,    358,    0.0,    8.3,   0.00,   0.00, 1017.6,   67.2, -999.0
22-05-2023, 00:43:42,    340,    0.8,    8.3,   0.00,   0.00, 1017.7,   67.6, -999.0
22-05-2023, 00:43:51,    352,    1.5,    8.2,   0.00,   0.00, 1017.7,   67.4, -999.0
22-05-2023, 00:44:02,    352,    0.1,    8.2,   0.00,   0.00, 1017.6,   67.2, -999.0
22-05-2023, 00:44:12,    352,    0.0,    8.2,   0.00,   0.00, 1017.6,   67.2, -999.0
22-05-2023, 00:44:22,    352,    0.5,    8.2,   0.00,   0.00, 1017.6,   67.5, -999.0
22-05-2023, 00:44:31,    348,    0.9,    8.3,   0.00,   0.00, 1017.6,   67.6, -999.0
22-05-2023, 00:44:42,    348,    1.1,    8.3,   0.00,   0.00, 1017.6,   67.7, -999.0
22-05-2023, 00:44:52,    326,    1.0,    8.2,   0.00,   0.00, 1017.7,   67.7, -999.0
22-05-2023, 00:45:01,    330,    0.8,    8.2,   0.00,   0.00, 1017.6,   67.7, -999.0
22-05-2023, 00:45:11,    328,    0.8,    8.3,   0.00,   0.00, 1017.7,   67.6, -999.0
22-05-2023, 00:45:22,    328,    1.1,    8.2,   0.00,   0.00, 1017.7,   67.7, -999.0
22-05-2023, 00:45:31,    339,    1.3,    8.2,   0.00,   0.00, 1017.7,   67.6, -999.0
22-05-2023, 00:45:41,    350,    1.7,    8.2,   0.00,   0.00, 1017.6,   67.7, -999.0
22-05-2023, 00:45:52,    356,    0.8,    8.2,   0.00,   0.00, 1017.7,   67.6, -999.0
22-05-2023, 00:46:01,    358,    1.4,    8.3,   0.00,   0.00, 1017.7,   67.5, -999.0
22-05-2023, 00:46:11,    312,    1.3,    8.3,   0.00,   0.00, 1017.7,   67.5, -999.0
22-05-2023, 00:46:21,    312,    0.5,    8.3,   0.00,   0.00, 1017.7,   67.4, -999.0
22-05-2023, 00:46:32,    317,    0.1,    8.2,   0.00,   0.00, 1017.6,   67.3, -999.0
22-05-2023, 00:46:41,    317,    0.0,    8.2,   0.00,   0.00, 1017.6,   67.3, -999.0
22-05-2023, 00:46:51,    317,    0.1,    8.2,   0.00,   0.00, 1017.6,   67.5, -999.0